Location: Muenchen
(48.1800°N, 11.5800°E)
Time: 18:39:30
(UTC+02:00)

Sich 1 Rocket - Visible Passes

Search period start: 27 June 2016 00:00
Search period end: 07 July 2016 00:00
Orbit: 618 x 652 km, 82.5° (Epoch: 26 June)

Date Brightness Start Highest point End Pass type
(mag) Time Alt. Az. Time Alt. Az. Time Alt. Az.
27 Jun 4.0 01:20:04 35° SSE 01:21:36 53° E 01:26:01 10° NNE visible
27 Jun 5.6 02:57:33 12° WSW 03:00:10 19° WNW 03:03:23 10° NNW visible
28 Jun 5.9 00:04:47 10° ESE 00:06:25 12° E 00:08:12 10° ENE visible
28 Jun 3.6 01:42:15 39° SSW 01:43:55 79° W 01:48:28 10° N visible
28 Jun 6.1 03:22:13 10° WNW 03:22:58 10° WNW 03:23:43 10° NW visible
29 Jun 5.2 00:26:57 20° ESE 00:28:25 23° E 00:31:58 10° NE visible
29 Jun 4.5 02:04:26 26° SW 02:06:22 40° WNW 02:10:40 10° N visible
30 Jun 4.2 00:49:07 33° SE 00:50:33 44° E 00:54:52 10° NNE visible
30 Jun 5.4 02:26:35 15° WSW 02:28:58 22° WNW 02:32:32 10° NNW visible
30 Jun 6.0 23:35:18 10° E 23:35:27 10° E 23:35:36 10° ENE visible
01 Jul 3.5 01:11:15 41° S 01:12:49 87° E 01:17:23 10° N visible
01 Jul 6.0 02:49:49 10° W 02:51:44 12° WNW 02:53:39 10° NW visible
01 Jul 5.3 23:55:55 17° ESE 23:57:24 20° E 00:00:38 10° NE visible
02 Jul 4.2 01:33:24 30° SW 01:35:13 48° WNW 01:39:39 10° N visible
03 Jul 4.5 00:18:03 29° SE 00:19:30 36° E 00:23:40 10° NNE visible
03 Jul 5.2 01:55:31 18° WSW 01:57:47 26° WNW 02:01:37 10° NNW visible
04 Jul 3.6 00:40:09 40° S 00:41:43 72° E 00:46:17 10° NNE visible
04 Jul 6.0 02:17:57 10° W 02:20:30 15° WNW 02:23:04 10° NNW visible
04 Jul 5.5 23:24:47 14° ESE 23:26:24 17° E 23:29:14 10° NE visible
05 Jul 4.0 01:02:15 33° SW 01:04:06 58° WNW 01:08:37 10° N visible
05 Jul 4.7 23:46:52 24° SE 23:48:27 31° E 23:52:27 10° NNE visible
06 Jul 5.0 01:24:20 20° WSW 01:26:37 31° WNW 01:30:40 10° N visible
